GW3738 Weather Reports


time (UTC)temp
F
wind
direction
speed
knots
gust
knots
rain 1hr
in
rain 24hr
in
rain mn
in
humidity
%
barometer
mb
20260504035318 59 207 0.0 0.0 0.00 0.00 0.00 43 1003.8
20260504034815 59 199 0.0 0.0 0.00 0.00 0.00 43 1003.8
20260504034313 60 197 0.0 0.0 0.00 0.00 0.00 43 1003.8
20260504033809 60 196 0.0 0.0 0.00 0.00 0.00 42 1003.8
20260504033307 60 200 0.0 0.9 0.00 0.00 0.00 42 1003.7
20260504032804 60 199 0.0 0.9 0.00 0.00 0.00 43 1003.8
20260504032301 60 220 0.0 0.9 0.00 0.00 0.00 43 1003.9
20260504031757 60 218 0.0 0.9 0.00 0.00 0.00 43 1003.9
20260504031255 60 207 0.0 0.0 0.00 0.00 0.00 42 1003.9
20260504030751 61 209 0.0 0.0 0.00 0.00 0.00 43 1003.9
20260504030248 61 214 0.0 0.0 0.00 0.00 0.00 41 1003.7
20260504025744 61 229 0.0 0.0 0.00 0.00 0.00 42 1003.8
20260504025241 61 213 0.0 0.0 0.00 0.00 0.00 42 1003.9
20260504024738 60 214 0.0 0.0 0.00 0.00 0.00 42 1003.7
20260504024235 61 213 0.0 0.0 0.00 0.00 0.00 42 1003.7
20260504023732 61 214 0.0 0.0 0.00 0.00 0.00 42 1003.8
20260504023228 61 210 0.0 0.0 0.00 0.00 0.00 43 1003.8
20260504022724 61 206 0.0 0.0 0.00 0.00 0.00 42 1003.6
20260504022220 61 229 0.0 0.0 0.00 0.00 0.00 42 1003.6
20260504021718 61 229 0.0 0.0 0.00 0.00 0.00 42 1003.6
20260504021215 61 229 0.0 0.0 0.00 0.00 0.00 42 1003.6
20260504020712 61 221 0.0 0.0 0.00 0.00 0.00 43 1003.6
20260504020208 62 213 0.0 0.0 0.00 0.00 0.00 43 1003.4
20260504015705 62 213 0.0 0.0 0.00 0.00 0.00 43 1003.3
20260504015201 62 212 0.0 0.0 0.00 0.00 0.00 44 1003.3
20260504014656 62 210 0.0 0.0 0.00 0.00 0.00 44 1003.5
20260504014154 62 210 0.0 0.0 0.00 0.00 0.00 44 1003.4
20260504013652 63 203 0.0 0.0 0.00 0.00 0.00 43 1003.3
20260504013148 63 250 0.0 0.9 0.00 0.00 0.00 44 1003.3
20260504012645 63 174 0.0 0.9 0.00 0.00 0.00 43 1003.1
20260504012143 64 206 0.0 0.9 0.00 0.00 0.00 43 1003.4
20260504011640 64 200 0.0 0.0 0.00 0.00 0.00 43 1003.2
20260504011136 65 214 0.0 0.0 0.00 0.00 0.00 42 1003.0
20260504010632 65 210 0.0 0.0 0.00 0.00 0.00 42 1003.1
20260504010128 65 211 0.0 0.9 0.00 0.00 0.00 42 1003.0
20260504005625 65 196 0.0 0.0 0.00 0.00 0.00 42 1003.1
20260504005122 66 244 0.9 0.9 0.00 0.00 0.00 42 1003.1
20260504004620 66 190 0.0 0.0 0.00 0.00 0.00 42 1002.8
20260504004117 66 189 0.0 0.0 0.00 0.00 0.00 41 1002.8
20260504003613 66 189 0.0 0.0 0.00 0.00 0.00 40 1002.9
20260504003110 67 181 0.0 0.0 0.00 0.00 0.00 40 1002.8
20260504002607 67 187 0.0 0.0 0.00 0.00 0.00 41 1002.6
20260504002104 67 102 0.9 1.7 0.00 0.00 0.00 39 1002.6
20260504001602 67 201 0.9 0.9 0.00 0.00 0.00 39 1002.8
20260504001057 68 193 0.0 0.0 0.00 0.00 0.00 39 1002.6
20260504000555 68 169 0.0 0.0 0.00 0.00 0.00 38 1002.8
20260504000053 68 177 0.0 0.0 0.00 0.00 0.00 37 1002.8
20260503235551 69 191 0.0 0.0 0.00 0.00 0.00 37 1002.9
20260503235047 69 137 0.0 0.9 0.00 0.00 0.00 35 1002.5
20260503234545 69 171 0.9 0.9 0.00 0.00 0.00 36 1002.5
20260503234043 69 194 0.0 0.0 0.00 0.00 0.00 38 1002.4
20260503233539 69 138 0.0 0.9 0.00 0.00 0.00 38 1002.5
20260503233035 69 322 1.7 1.7 0.00 0.00 0.00 37 1002.5
20260503232532 70 242 0.9 1.7 0.00 0.00 0.00 36 1002.5
20260503232030 70 255 1.7 1.7 0.00 0.00 0.00 38 1002.6
20260503231528 70 73 0.9 2.6 0.00 0.00 0.00 36 1002.6
20260503231024 71 196 1.7 1.7 0.00 0.00 0.00 35 1002.6
20260503230521 71 228 0.9 0.9 0.00 0.00 0.00 36 1002.6
20260503230018 72 346 0.9 1.7 0.00 0.00 0.00 37 1002.7
20260503225515 71 205 0.0 0.0 0.00 0.00 0.00 37 1002.7
20260503225010 72 202 3.5 7.8 0.00 0.00 0.00 34 1002.7
20260503224508 72 136 3.5 5.2 0.00 0.00 0.00 36 1002.6
20260503224005 72 225 2.6 3.5 0.00 0.00 0.00 35 1002.8
20260503223503 72 87 2.6 3.5 0.00 0.00 0.00 35 1002.8
20260503222958 73 140 0.9 0.9 0.00 0.00 0.00 38 1002.9
20260503222457 72 181 2.6 2.6 0.00 0.00 0.00 35 1002.8
20260503221955 72 178 0.0 0.0 0.00 0.00 0.00 36 1002.9
20260503221453 73 92 0.0 0.9 0.00 0.00 0.00 36 1002.7
20260503220949 73 58 1.7 2.6 0.00 0.00 0.00 33 1002.8
20260503220446 72 252 1.7 1.7 0.00 0.00 0.00 36 1002.7
20260503215943 73 241 1.7 2.6 0.00 0.00 0.00 34 1002.8
20260503215440 72 190 0.9 0.9 0.00 0.00 0.00 37 1003.0
20260503214937 72 235 1.7 1.7 0.00 0.00 0.00 36 1002.8
20260503214435 72 217 3.5 6.1 0.00 0.00 0.00 36 1003.0
20260503213932 73 192 0.9 0.9 0.00 0.00 0.00 38 1002.9
20260503213430 73 206 1.7 2.6 0.00 0.00 0.00 36 1002.9
20260503212926 73 15 0.9 1.7 0.00 0.00 0.00 37 1003.1
20260503212424 73 167 0.9 0.9 0.00 0.00 0.00 38 1003.2
20260503211921 71 149 0.9 0.9 0.00 0.00 0.00 37 1003.1
20260503211418 71 236 1.7 2.6 0.00 0.00 0.00 38 1003.1
20260503210913 71 191 1.7 1.7 0.00 0.00 0.00 38 1003.3
20260503210410 71 290 5.2 6.1 0.00 0.00 0.00 37 1002.9
20260503205904 71 183 2.6 3.5 0.00 0.00 0.00 39 1003.3
20260503205401 70 251 2.6 2.6 0.00 0.00 0.00 38 1003.3
20260503204858 70 244 1.7 2.6 0.00 0.00 0.00 38 1003.2
20260503204355 70 221 2.6 3.5 0.00 0.00 0.00 38 1003.4
20260503203852 70 65 0.9 1.7 0.00 0.00 0.00 38 1003.5
20260503203349 72 208 2.6 3.5 0.00 0.00 0.00 36 1003.5
20260503202846 69 11 4.3 5.2 0.00 0.00 0.00 38 1003.7
20260503202345 70 215 4.3 6.1 0.00 0.00 0.00 39 1003.7
20260503201843 70 228 3.5 6.1 0.00 0.00 0.00 40 1003.6
20260503201339 70 242 1.7 1.7 0.00 0.00 0.00 40 1003.7
20260503200837 71 286 1.7 2.6 0.00 0.00 0.00 39 1003.7
20260503200332 68 7 1.7 2.6 0.00 0.00 0.00 40 1004.1
20260503195830 68 311 6.1 7.0 0.00 0.00 0.00 40 1003.7
20260503195326 67 256 6.1 7.0 0.00 0.00 0.00 42 1004.1
20260503194824 68 221 2.6 2.6 0.00 0.00 0.00 41 1004.2
20260503194319 69 219 5.2 7.0 0.00 0.00 0.00 41 1004.3
20260503193816 68 258 1.7 2.6 0.00 0.00 0.00 43 1004.4
20260503193312 68 242 2.6 2.6 0.00 0.00 0.00 40 1004.4
20260503192808 67 243 2.6 2.6 0.00 0.00 0.00 41 1004.7
20260503192305 67 286 5.2 7.8 0.00 0.00 0.00 44 1004.4
20260503191800 66 169 2.6 6.1 0.00 0.00 0.00 46 1004.5
20260503191257 66 200 0.9 2.6 0.00 0.00 0.00 44 1004.6
20260503190754 66 249 6.1 8.7 0.00 0.00 0.00 43 1004.7
20260503190250 66 128 0.9 1.7 0.00 0.00 0.00 44 1004.9
20260503185748 67 268 3.5 7.8 0.00 0.00 0.00 44 1004.7
20260503185243 66 118 4.3 5.2 0.00 0.00 0.00 44 1004.7
20260503184738 65 169 1.7 3.5 0.00 0.00 0.00 46 1004.9
20260503184235 67 122 7.8 8.7 0.00 0.00 0.00 42 1005.0
20260503183731 66 247 4.3 6.1 0.00 0.00 0.00 43 1004.9
20260503183229 65 270 7.8 11.3 0.00 0.00 0.00 43 1005.2
20260503182726 66 225 3.5 5.2 0.00 0.00 0.00 43 1004.9
20260503182225 65 229 2.6 3.5 0.00 0.00 0.00 44 1005.0
20260503181721 65 135 1.7 2.6 0.00 0.00 0.00 44 1005.0
20260503181218 65 198 3.5 7.8 0.00 0.00 0.00 45 1004.8
20260503180714 65 204 2.6 3.5 0.00 0.00 0.00 43 1005.0
20260503180213 66 237 2.6 3.5 0.00 0.00 0.00 44 1005.2
20260503175710 65 113 0.9 1.7 0.00 0.00 0.00 46 1005.1
20260503175208 64 174 0.9 2.6 0.00 0.00 0.00 45 1005.1
20260503174703 64 299 7.0 9.6 0.00 0.00 0.00 43 1005.1
20260503174201 63 334 4.3 7.8 0.00 0.00 0.00 44 1005.5
20260503173656 64 186 3.5 7.0 0.00 0.00 0.00 42 1005.3
20260503173152 64 243 7.0 8.7 0.00 0.00 0.00 44 1005.5
20260503172649 64 157 3.5 5.2 0.00 0.00 0.00 44 1005.5
20260503172147 62 182 0.9 0.9 0.00 0.00 0.00 45 1005.8
20260503171643 64 199 1.7 3.5 0.00 0.00 0.00 45 1005.8
20260503171140 63 221 7.0 8.7 0.00 0.00 0.00 44 1005.8
20260503170637 63 170 1.7 2.6 0.00 0.00 0.00 45 1005.9
20260503170134 63 155 4.3 5.2 0.00 0.00 0.00 45 1005.9
20260503150525 56 186 6.1 8.7 0.00 0.00 0.00 61 1007.5
20260503131419 52 101 0.9 2.6 0.00 0.00 0.00 68 1008.4
20260503130915 52 213 2.6 5.2 0.00 0.00 0.00 66 1008.5
20260503130413 52 222 3.5 5.2 0.00 0.00 0.00 68 1008.6
20260503110812 49 232 1.7 1.7 0.00 0.00 0.00 57 1009.3
20260503110309 49 194 0.0 0.9 0.00 0.00 0.00 56 1009.3
20260503100235 50 114 0.0 0.9 0.00 0.00 0.00 53 1009.4
20260503090159 50 203 0.0 0.9 0.00 0.00 0.00 50 1010.0
20260503081635 49 173 2.6 3.5 0.00 0.00 0.00 50 1010.3
20260503081132 49 209 0.9 1.7 0.00 0.00 0.00 53 1010.5
20260503080628 49 189 0.0 0.9 0.00 0.00 0.00 51 1010.4
20260503080125 49 210 0.9 0.9 0.00 0.00 0.00 51 1010.3
20260503072602 48 190 0.0 0.9 0.00 0.00 0.00 51 1010.6
20260503072059 48 136 0.9 0.9 0.00 0.00 0.00 52 1010.6
20260503071556 48 196 0.0 0.9 0.00 0.00 0.00 51 1010.6
20260503071053 48 143 0.9 1.7 0.00 0.00 0.00 52 1010.6
20260503070549 48 115 0.9 0.9 0.00 0.00 0.00 51 1010.6
20260503055009 48 149 0.0 0.0 0.00 0.00 0.00 49 1011.4
20260503054505 49 200 0.0 0.0 0.00 0.00 0.00 48 1011.5
20260503054003 49 193 0.9 1.7 0.00 0.00 0.00 49 1011.3
20260503053500 49 202 0.9 0.9 0.00 0.00 0.00 48 1011.4
20260503052957 49 179 0.9 0.9 0.00 0.00 0.00 48 1011.4
20260503052454 50 129 0.9 1.7 0.00 0.00 0.00 48 1011.3
20260503051950 50 224 0.9 0.9 0.00 0.00 0.00 47 1011.2
20260503051446 49 4 0.9 1.7 0.00 0.00 0.00 47 1011.5
20260503050944 50 101 0.0 0.0 0.00 0.00 0.00 47 1011.5
20260503050439 50 149 1.7 2.6 0.00 0.00 0.00 46 1011.6
20260503045937 50 187 2.6 3.5 0.00 0.00 0.00 46 1011.4
20260503045435 50 226 1.7 1.7 0.00 0.00 0.00 46 1011.5
20260503044931 50 193 0.0 0.9 0.00 0.00 0.00 46 1011.6
20260503044428 50 167 1.7 2.6 0.00 0.00 0.00 45 1011.6
20260503043926 50 134 1.7 1.7 0.00 0.00 0.00 45 1011.7
20260503043422 50 161 0.9 1.7 0.00 0.00 0.00 44 1011.7
20260503042918 50 168 2.6 3.5 0.00 0.00 0.00 44 1011.8
20260503042415 50 170 0.0 0.0 0.00 0.00 0.00 44 1011.8
20260503041912 50 173 0.9 1.7 0.00 0.00 0.00 44 1011.9
20260503041409 50 140 0.0 0.9 0.00 0.00 0.00 44 1012.0
20260503040906 50 159 0.0 0.0 0.00 0.00 0.00 44 1012.0
20260503040404 49 141 2.6 2.6 0.00 0.00 0.00 43 1012.1
20260503035900 50 121 0.0 0.0 0.00 0.00 0.00 45 1012.1